STARLINK-1207 (45380 NORAD) Tracking and Keplerian Element Data

This shows tracking and keplerian element data for the satellite.

Feedback or suggestion? Click here.




ElementValue
Catalog45380
NameSTARLINK-1207
Epoch Orbit1901
Epoch Day197.25001157
Epoch Year2020
RAAN49.7541
Inclination53.0014
Eccentricity0.0001958
Argument of Perigee110.9928
Mean Anonmoly110.1806
Mean Motion15.05607649
Decay Rate-0.00036495
L11 45380U 20019W 20197.25001157 -.00036495 00000-0 -24965-2 0 9999
L22 45380 53.0014 49.7541 0001958 110.9928 110.1806 15.05607649 19019

Live tracking and technical data element details for STARLINK-1207 (NORAD 45380). STARLINK-1207 can be tracked NOW for your location showing map with azimuth and elevation plus other details from your city location.

Track the satellite on the map from your city or location and see movement details for azimuth, elevation, latitude, longitude, range, height, and movement on the map or in text.







IsCatalogInMostPopularTable: catalog: 45380, numindb: 22
Update: records affected: 1



GetName: 45380 STARLINK-1207

Hit Count: updated at: Thu, 16 Jul 2020 04:00:12 GMT